Regional Weather Roundup
Issued by NWS

Home | Current Version | Previous Version | Graphics & Text | Print | Product List | Glossary On
Versions: 1 2 3 4 5 6 7 8 9 10 11 12 13 14 15 16 17 18 19 20 21 22 23 24 25 26 27 28 29 30 31 32 33 34 35 36 37 38 39 40 41 42 43 44 45 46 47 48 49 50
000
ASUS45 KCYS 030510
RWRWY

WYOMING REGIONAL WEATHER ROUNDUP
NATIONAL WEATHER SERVICE CHEYENNE WY
1100 PM MDT TUE SEP 02 2014

NOTE:  "FAIR" INDICATES FEW OR NO CLOUDS BELOW 12,000 FEET
WITH NO SIGNIFICANT WEATHER AND/OR OBSTRUCTIONS TO VISIBILITY.

WYZ001-030600-
YELLOWSTONE NATIONAL PARK

CITY           SKY/WX    TMP DP  RH WIND       PRES   REMARKS
LK YELLOWSTONE   N/A     39  34  82 CALM      30.05F
W YELLOWSTONE  NOT AVBL

$$
WYZ002>013-054>058-071-098>099-030600-
NORTHERN WYOMING

CITY           SKY/WX    TMP DP  RH WIND       PRES   REMARKS
JACKSON        CLEAR     48  34  57 CALM      29.97F
CODY             N/A    N/A N/A N/A MISG        N/A
GREYBULL       CLEAR     64  37  36 N5        29.73S
WORLAND        CLEAR     59  40  49 SW8       29.75S
SHERIDAN       CLEAR     54  44  69 SE6       29.73F
BUFFALO        CLEAR     59  37  44 NE3       29.80F
GILLETTE       CLEAR     60  40  47 S14       29.77F
HULETT         FAIR      61  34  36 MISG      29.80
NEWCASTLE      FAIR      68  32  26 E15       29.81

$$
WYZ014>020-022>026-101>103-030600-
CENTRAL WYOMING

CITY           SKY/WX    TMP DP  RH WIND       PRES   REMARKS
BIG PINEY      CLEAR     46  33  60 W8        30.06F
PINEDALE       CLEAR     45  36  70 CALM      30.07S
DUBOIS         FAIR      52  30  43 NW13      29.99F
LANDER         PTCLDY    65  29  25 W10       29.87S
RIVERTON       PTCLDY    62  24  23 W10       29.88S
CASPER         CLEAR     57  33  40 SW7       29.87F
DOUGLAS        CLEAR     57  43  59 S7        29.86F

$$
WYZ021-027>030-104>119-030600-
SOUTHERN WYOMING

CITY           SKY/WX    TMP DP  RH WIND       PRES   REMARKS
EVANSTON       CLOUDY    64  36  35 E6        30.05F
KEMMERER       CLEAR     54  32  43 N8        30.07F
FORT BRIDGER   FAIR      63  34  34 W6        30.08F
ROCK SPRINGS   CLEAR     62  32  32 S8        30.04S
DIXON          FAIR      55  43  62 E3        30.07S
RAWLINS        PTCLDY    64  36  35 SW10      30.04S
SARATOGA       MOCLDY    55  37  50 SW7       30.08S
LARAMIE        CLEAR     55  35  47 SW7       30.09F
CHEYENNE       CLEAR     61  42  49 W3        30.02S
TORRINGTON     CLEAR     60  47  61 E3        29.83F
PINE BLUFFS    FAIR      55  46  71 S7        29.95F

$$



USA.gov is the U.S. government's official web portal to all federal, state and local government web resources and services.